This is the latest recevied weather packets stored in our database for station/object VK4TOM-13. If no packets are shown the sender has not sent any weather packets the latest 10 day(s).
| Time | Temp. | Humidity | Pressure | Rain* | Wind** | Luminosity | Snow |
|---|---|---|---|---|---|---|---|
| 1777707653 | 25° C | 70% | 1016.3 hPa | 0 mm | - | - | - |
| 1777707052 | 25° C | 70% | 1016.1 hPa | 0 mm | - | - | - |
| 1777706451 | 25° C | 70% | 1016 hPa | 0 mm | - | - | - |
| 1777705849 | 25.56° C | 70% | 1015.8 hPa | 0 mm | - | - | - |
| 1777705248 | 25.56° C | 70% | 1015.7 hPa | 0 mm | - | - | - |
| 1777704647 | 25.56° C | 70% | 1015.8 hPa | 0 mm | - | - | - |
| 1777704047 | 26.11° C | 70% | 1015.6 hPa | 0 mm | - | - | - |
| 1777703322 | 26.11° C | 70% | 1015.5 hPa | 0 mm | - | - | - |
| 1777702721 | 26.67° C | 70% | 1015.5 hPa | 0 mm | - | - | - |
| 1777702120 | 27.22° C | 70% | 1015.6 hPa | 0 mm | - | - | - |
| 1777701519 | 27.22° C | 70% | 1015.5 hPa | 0 mm | - | - | - |
| 1777701333 | 27.22° C | 70% | 1015.4 hPa | 0 mm | - | - | - |
| 1777700748 | 27.78° C | 70% | 1015.4 hPa | 0 mm | - | - | - |
| 1777700147 | 28.33° C | 70% | 1015.3 hPa | 0 mm | - | - | - |
| 1777699545 | 27.22° C | 70% | 1015.3 hPa | 0 mm | - | - | - |
| 1777698944 | 27.22° C | 70% | 1015.3 hPa | 0 mm | - | - | - |
| 1777698343 | 27.78° C | 70% | 1015.3 hPa | 0 mm | - | - | - |
| 1777697742 | 28.33° C | 70% | 1015.4 hPa | 0 mm | - | - | - |
| 1777697141 | 28.33° C | 70% | 1015.4 hPa | 0 mm | - | - | - |
| 1777696540 | 28.89° C | 70% | 1015.4 hPa | 0 mm | - | - | - |
| 1777695939 | 28.89° C | 70% | 1015.6 hPa | 0 mm | - | - | - |
| 1777695338 | 28.89° C | 70% | 1015.6 hPa | 0 mm | - | - | - |
| 1777694737 | 28.89° C | 70% | 1015.7 hPa | 0 mm | - | - | - |
| 1777694136 | 29.44° C | 70% | 1015.6 hPa | 0 mm | - | - | - |
| 1777692934 | 30.56° C | 70% | 1015.7 hPa | 0 mm | - | - | - |
* Rain since midnight (hover to see other rain measurements)
** Current wind speed in m/s (hover to see current wind gust speed)